When you browse on this site, cookies collect data to enhance your experience and personalize the content and advertising you see.
Visit our Privacy Policy to learn more. By continuing to use the site, you agree to this use of cookies and data.
  • In Österreich
  • Länderverzeichnis
  • Für 7 Tage
  • Wassertemperatur
  • Satellitenkarten
  • Wetterkarte
  • News
  • Widgets
  • user-avatar
    Anmelden

    Stündliche Wetter Andon

    Heute, 25 März, Montag

    Zeit Temperatur Niederschläge Wind Luftdruck Luftfeuchtigkeit
    00:00 +2°C° 0 mm 1 m/S 751 mmHg 73%
    01:00 +1°C° 0 mm 1 m/S 751 mmHg 74%
    02:00 +1°C° 0 mm 1 m/S 751 mmHg 74%
    03:00 +1°C° 0 mm 1 m/S 751 mmHg 72%
    04:00 +1°C° 0 mm 1 m/S 751 mmHg 71%
    05:00 +1°C° 0 mm 1 m/S 750 mmHg 70%
    06:00 +1°C° 0 mm 1 m/S 750 mmHg 69%
    07:00 +3°C° 0 mm 1 m/S 750 mmHg 65%
    08:00 +5°C° 0 mm 1 m/S 750 mmHg 61%
    09:00 +7°C° 0 mm 1 m/S 751 mmHg 57%
    10:00 +7°C° 0 mm 2 m/S 750 mmHg 55%
    11:00 +9°C° 0 mm 2 m/S 750 mmHg 54%
    12:00 +11°C° 0 mm 3 m/S 750 mmHg 53%
    13:00 +12°C° 0 mm 3 m/S 750 mmHg 51%
    14:00 +13°C° 0 mm 3 m/S 749 mmHg 48%
    15:00 +14°C° 0 mm 3 m/S 749 mmHg 47%
    16:00 +13°C° 0 mm 3 m/S 749 mmHg 51%
    17:00 +12°C° 0 mm 3 m/S 749 mmHg 54%
    18:00 +11°C° 0 mm 3 m/S 749 mmHg 58%
    19:00 +10°C° 0 mm 3 m/S 749 mmHg 65%
    20:00 +8°C° 0 mm 2 m/S 749 mmHg 72%
    21:00 +7°C° 0 mm 2 m/S 749 mmHg 79%
    22:00 +6°C° 0 mm 2 m/S 749 mmHg 80%
    23:00 +6°C° 0 mm 2 m/S 749 mmHg 82%

    Morgen, 26 März, Dienstag

    Zeit Temperatur Niederschläge Wind Luftdruck Luftfeuchtigkeit
    00:00 +6°C° 0 mm 1 m/S 749 mmHg 84%
    01:00 +5°C° 0 mm 1 m/S 749 mmHg 85%
    02:00 +5°C° 0 mm 1 m/S 749 mmHg 85%
    03:00 +5°C° 0 mm 1 m/S 749 mmHg 86%
    04:00 +4°C° 0 mm 1 m/S 749 mmHg 86%
    05:00 +4°C° 0 mm 1 m/S 749 mmHg 86%
    06:00 +4°C° 0 mm 1 m/S 749 mmHg 87%
    07:00 +5°C° 0 mm 1 m/S 750 mmHg 82%
    08:00 +7°C° 0 mm 1 m/S 750 mmHg 78%
    09:00 +8°C° 0 mm 2 m/S 750 mmHg 73%
    10:00 +10°C° 0 mm 2 m/S 750 mmHg 66%
    11:00 +12°C° 0 mm 3 m/S 750 mmHg 59%
    12:00 +14°C° 0 mm 4 m/S 750 mmHg 51%
    13:00 +15°C° 0 mm 4 m/S 750 mmHg 44%
    14:00 +17°C° 0 mm 4 m/S 750 mmHg 37%
    15:00 +17°C° 0 mm 5 m/S 750 mmHg 30%
    16:00 +17°C° 0 mm 4 m/S 750 mmHg 35%
    17:00 +16°C° 0 mm 3 m/S 750 mmHg 40%
    18:00 +15°C° 0 mm 1 m/S 750 mmHg 44%
    19:00 +13°C° 0 mm 1 m/S 750 mmHg 47%
    20:00 +12°C° 0 mm 1 m/S 750 mmHg 50%
    21:00 +9°C° 0 mm 0 m/S 750 mmHg 52%
    22:00 +8°C° 0 mm 0 m/S 750 mmHg 54%
    23:00 +8°C° 0 mm 0 m/S 750 mmHg 57%

    übermorgen, 27 März, Mittwoch

    Zeit Temperatur Niederschläge Wind Luftdruck Luftfeuchtigkeit
    00:00 +7°C° 0 mm 0 m/S 750 mmHg 59%
    01:00 +7°C° 0 mm 0 m/S 750 mmHg 61%
    02:00 +7°C° 0 mm 0 m/S 750 mmHg 64%
    03:00 +7°C° 0 mm 1 m/S 749 mmHg 66%
    04:00 +8°C° 0.2 mm 1 m/S 749 mmHg 69%
    05:00 +8°C° 0.2 mm 1 m/S 749 mmHg 71%
    06:00 +8°C° 0.2 mm 1 m/S 748 mmHg 73%
    07:00 +9°C° 0 mm 2 m/S 748 mmHg 71%
    08:00 +11°C° 0 mm 3 m/S 748 mmHg 68%
    09:00 +12°C° 0 mm 4 m/S 748 mmHg 66%
    10:00 +15°C° 0 mm 5 m/S 748 mmHg 60%
    11:00 +17°C° 0 mm 5 m/S 747 mmHg 53%
    12:00 +20°C° 0 mm 6 m/S 747 mmHg 47%
    13:00 +20°C° 0 mm 6 m/S 746 mmHg 43%
    14:00 +21°C° 0 mm 7 m/S 745 mmHg 39%
    15:00 +21°C° 0 mm 8 m/S 745 mmHg 35%
    16:00 +20°C° 0 mm 7 m/S 745 mmHg 37%
    17:00 +17°C° 0 mm 6 m/S 745 mmHg 40%
    18:00 +16°C° 0 mm 5 m/S 744 mmHg 42%
    19:00 +14°C° 0 mm 4 m/S 745 mmHg 52%
    20:00 +13°C° 0 mm 4 m/S 745 mmHg 63%
    21:00 +11°C° 0 mm 3 m/S 745 mmHg 73%
    22:00 +11°C° 0 mm 3 m/S 745 mmHg 76%
    23:00 +11°C° 0 mm 3 m/S 745 mmHg 80%

    28 März, Donnerstag

    Zeit Temperatur Niederschläge Wind Luftdruck Luftfeuchtigkeit
    00:00 +11°C° 0 mm 3 m/S 746 mmHg 83%
    01:00 +10°C° 0 mm 3 m/S 746 mmHg 85%
    02:00 +9°C° 0 mm 2 m/S 746 mmHg 87%
    03:00 +8°C° 0 mm 2 m/S 746 mmHg 89%
    04:00 +8°C° 0 mm 2 m/S 746 mmHg 90%
    05:00 +7°C° 0 mm 2 m/S 746 mmHg 92%
    06:00 +6°C° 0 mm 2 m/S 746 mmHg 93%
    07:00 +7°C° 0 mm 2 m/S 747 mmHg 74%
    08:00 +8°C° 0 mm 2 m/S 747 mmHg 55%
    09:00 +9°C° 0 mm 3 m/S 748 mmHg 36%
    10:00 +12°C° 0 mm 2 m/S 748 mmHg 31%
    11:00 +14°C° 0 mm 2 m/S 748 mmHg 26%
    12:00 +15°C° 0 mm 1 m/S 748 mmHg 21%
    13:00 +15°C° 0 mm 2 m/S 747 mmHg 21%
    14:00 +16°C° 0 mm 2 m/S 747 mmHg 20%
    15:00 +16°C° 0 mm 3 m/S 747 mmHg 20%
    16:00 +15°C° 0 mm 2 m/S 747 mmHg 24%
    17:00 +14°C° 0 mm 2 m/S 747 mmHg 28%
    18:00 +13°C° 0 mm 2 m/S 747 mmHg 32%
    19:00 +12°C° 0 mm 1 m/S 747 mmHg 36%
    20:00 +11°C° 0 mm 1 m/S 747 mmHg 40%
    21:00 +9°C° 0 mm 1 m/S 747 mmHg 44%
    22:00 +9°C° 0 mm 1 m/S 747 mmHg 45%
    23:00 +9°C° 0 mm 1 m/S 747 mmHg 46%

    29 März, Freitag

    Zeit Temperatur Niederschläge Wind Luftdruck Luftfeuchtigkeit
    00:00 +7°C° 0 mm 2 m/S 747 mmHg 47%
    01:00 +7°C° 0.2 mm 2 m/S 747 mmHg 51%
    02:00 +6°C° 0.2 mm 2 m/S 747 mmHg 54%
    03:00 +6°C° 0.2 mm 2 m/S 747 mmHg 58%
    04:00 +5°C° 0 mm 2 m/S 747 mmHg 60%
    05:00 +4°C° 0 mm 2 m/S 747 mmHg 63%
    06:00 +3°C° 0 mm 2 m/S 747 mmHg 65%
    07:00 +4°C° 0 mm 2 m/S 747 mmHg 57%
    08:00 +6°C° 0 mm 2 m/S 747 mmHg 48%
    09:00 +7°C° 0 mm 3 m/S 747 mmHg 40%
    10:00 +8°C° 0 mm 3 m/S 748 mmHg 35%
    11:00 +10°C° 0 mm 3 m/S 748 mmHg 30%
    12:00 +11°C° 0 mm 4 m/S 748 mmHg 25%
    13:00 +12°C° 0 mm 4 m/S 747 mmHg 24%
    14:00 +12°C° 0 mm 4 m/S 747 mmHg 23%
    15:00 +13°C° 0 mm 4 m/S 747 mmHg 21%
    16:00 +12°C° 0 mm 4 m/S 747 mmHg 25%
    17:00 +11°C° 0 mm 3 m/S 747 mmHg 28%
    18:00 +10°C° 0 mm 2 m/S 748 mmHg 32%
    19:00 +9°C° 0 mm 2 m/S 748 mmHg 36%
    20:00 +8°C° 0 mm 1 m/S 749 mmHg 39%
    21:00 +6°C° 0 mm 1 m/S 749 mmHg 43%
    22:00 +6°C° 0 mm 1 m/S 749 mmHg 46%
    23:00 +5°C° 0 mm 1 m/S 749 mmHg 48%

    30 März, Samstag

    Zeit Temperatur Niederschläge Wind Luftdruck Luftfeuchtigkeit
    00:00 +3°C° 0 mm 0 m/S 749 mmHg 50%
    01:00 +3°C° 0 mm 0 m/S 749 mmHg 53%
    02:00 +2°C° 0 mm 0 m/S 748 mmHg 55%
    03:00 +2°C° 0 mm 0 m/S 748 mmHg 58%
    04:00 +2°C° 0 mm 0 m/S 748 mmHg 61%
    05:00 +1°C° 0 mm 0 m/S 748 mmHg 64%
    06:00 +1°C° 0 mm 0 m/S 748 mmHg 67%
    07:00 +3°C° 0 mm 0 m/S 748 mmHg 60%
    08:00 +6°C° 0 mm 1 m/S 748 mmHg 53%
    09:00 +9°C° 0 mm 1 m/S 747 mmHg 45%
    10:00 +9°C° 0 mm 2 m/S 747 mmHg 42%
    11:00 +10°C° 0 mm 3 m/S 746 mmHg 38%
    12:00 +11°C° 0 mm 3 m/S 745 mmHg 35%
    13:00 +10°C° 0.7 mm 4 m/S 745 mmHg 48%
    14:00 +8°C° 0.7 mm 4 m/S 744 mmHg 61%
    15:00 +6°C° 0.7 mm 5 m/S 743 mmHg 75%
    16:00 +6°C° 0.1 mm 5 m/S 743 mmHg 72%
    17:00 +6°C° 0.1 mm 5 m/S 744 mmHg 69%
    18:00 +4°C° 0.1 mm 6 m/S 744 mmHg 66%
    19:00 +3°C° 0.1 mm 5 m/S 745 mmHg 67%
    20:00 +4°C° 0.1 mm 4 m/S 746 mmHg 68%
    21:00 +3°C° 0.1 mm 3 m/S 747 mmHg 69%
    22:00 +2°C° 0 mm 3 m/S 747 mmHg 68%
    23:00 +1°C° 0 mm 3 m/S 748 mmHg 66%
    Mehr zeigen